Погода в Владимире

Погода в Владимире : погода сейчас, прогноз погоды и архив. Всё, что Вы хотите узнать о погоде в Владимире!

Хотите узнать прогноз погоды в Владимире? Тогда Вам сюда: Погода в Владимире

Поиск расширенной информации на нашем сайте:

Полезная информация:

Другие новости

Новости СМИ2

Главная страница сайта

Новости сайта

03.07.2017

Напоминаем, что на нашем специализированном сайте Метеоцентр.Азия вы можете получить высокодетализированные автоматические прогнозы погоды по пунктам России, СНГ и мира в авиационном формате (включающие направление и скорость ветра, видимость, явления погоды, количество и форму облачности, нижнюю и верхнюю границу облачности).

Рекомендуем:

Погода в Владимире - сегодня

Время (UTC), дата Ветер
(°,м/с) 
Видим.   Явления Облачность Т
(°С)
Тd
(°С)
f(%) Тe
(°С)
Pmin
(гПа)
dP
(гПа)
Po
(мм)
O2
(г/м3)
Тmin Tmax R s Состояние
почвы
21 18.05.19 250 (З) 10 км    6/0 верхняя 
[Ci fib]
+10.8 +1 51 +10  1014.9  -1  746  289           
00 19.05.19 020 (С) 10 км    4/0 верхняя 
[Ci fib]
+6.9 +3.2 77 +7  1016.5  1.3  747  293           
03 19.05.19 020 (С) 10 км    ясно 
+7.7 +3.6 75 +8  1017.4  747  292  +5.3        сухая 
06 19.05.19 350 (С) 10 км    1/0 верхняя 
[Ci fib]
+12.3 +1.9 49 +12  1017.5  0.4  748  288           
09 19.05.19 010 (С) 55{10}  0400 м    1/0 200 м верхняя 
[Ci fib]
+0.8   1017  -0.2  748             
12 19.05.19 360 (С) 5-12{13}  10 км    3/0 верхняя 
[Ci fib]
+16.8 -0.2 31 +17  1016.8  -0.2  747  284           
15 19.05.19 360 (С) 6-11{12}  10 км    ясно 
+15 -1.9 31 +14  1017.9  748  286    +17       
18 19.05.19 010 (С) 2{11}  10 км    3/0 средняя 
[Ac trans]
+8.3 -0.1 55 +8  1019.5  749  293           
21 19.05.19 тихо ()   10 км    ясно 
+4.3 +0 74 +4  1020.8  750  297           
00 20.05.19 210 (ЮЗ) 10 км    ясно 
+2.2 -0.9 80 +3  1022.3  1.2  751  300           
03 20.05.19 тихо ()   10 км    3/0 верхняя 
[Ci fib]
+7.6 +1.6 66 +8  1022.5  0.7  751  294  +1.1        сухая 
06 20.05.19 330 (СЗ) 10 км    3/0 верхняя 
[Ci fib]
+13.3 +0 40 +13  1022  -0.1  751  289           
09 20.05.19 350 (С) 10 км    3/0 верхняя 
[Ci fib]
+16 +1.2 37 +16  1021.6  -0.2  751  286           
12 20.05.19 330 (СЗ) 10 км    4/0 верхняя 
[Ci fib]
+17.9 -0.8 28 +18  1020.5  -0.9  750  284           
15 20.05.19 010 (С) 10 км    3/0 верхняя 
[Ci fib]
+17.5 -0.9 29 +18  1019.8  -0.8  750  284    +18.3       
18 20.05.19 210 (ЮЗ) 10 км    3/0 верхняя 
[Ci fib]
+9.2 +2.2 62 +10  1020.8  0.4  750  292           
21 20.05.19 тихо ()   10 км    3/0 верхняя 
[Ci fib]
+6 +1.3 72 +6  1021.6  0.5  750  296           
00 21.05.19 тихо ()   10 км    3/0 верхняя 
[Ci fib]
+3.8 +0.9 81 +4  1022.2  0.5  751  298           
03 21.05.19 180 (Ю) 10 км    6/0 средняя, верхняя 
[Ac trans|Ci fib]
+10.5 +2.3 57 +12  1021.9  0.2  751  291  +3.2        сухая 
06 21.05.19 210 (ЮЗ) 10 км    9/3 1000 м средняя 
[Sc|Ac und]
+15.4 +1.5 39 +16  1021.4  0.1  751  286           
09 21.05.19 190 (Ю) 10 км    10/4 1000 м средняя 
[Sc|Ac und]
+17.3 +0.3 32 +18  1020.3  -1  750  284           
12 21.05.19 210 (ЮЗ) 10 км    10/3 1000 м средняя 
[Sc|Ac und]
+19.1 +1.5 31 +21  1019  -1.1  749  282           
15 21.05.19 190 (Ю) 10 км    9/0 средняя, верхняя 
[Ac und|Ci fib]
+19.1 +4 37 +21  1016.8  -2.2  748  281    +19.9       
18 21.05.19 190 (Ю) 10 км    10/4 600 м средняя 
[Sc|Ac und]
+13.3 +7.4 67 +15  1015.8  -1.4  746  286           
21 21.05.19 210 (ЮЗ) 10 км  слаб. ливневой дождь  10/8 270 м кучево-дожд., средняя 
[Cb calv|Ac und]
+13.8 +11.7 87 +17  1015.6  0.1  746  284           
Время (UTC), дата Ветер
(°,м/с) 
Видим.   Явления Облачность Т
(°С)
Тd
(°С)
f(%) Тe
(°С)
Pmin
(гПа)
dP
(гПа)
Po
(мм)
O2
(г/м3)
Тmin Tmax R s Состояние
почвы

Для получения пояснительной информации подведите курсор к названию столбца.

ПОГОДА в Владимире - архив

Всё, что Вы хотите узнать о погоде в Владимире - удобно и подробно!

Выберите нужную дату (начиная с 1 января 2018* года) и нажмите кнопку "Найти".
Будут отображены архивные сводки погоды по пункту Владимир, начиная с указанной даты.


Отображать данные в формате CSV (для использования в таблицах Excel)


Внимание! Наш архив погоды предназначен исключительно для личного некоммерческого использования в познавательных целях. Если Вам необходимы официальные справки о состоянии погоды (для производственных, юридических, коммерческих и т.п. целей), обращайтесь в органы Росгидромета.

*Примечание: данная дата относится к архиву по метеостанциям СССР (Россия, СНГ, Балтия).
Архив по метеостанциям Зарубежной Европы и Азии (кроме Китая) хранится 10 дней, по другим регионам земного шара (Китай, Африка, Америка, Австралия, Океания) - 1 день.

Владимир - район местоположения метеостанции


Название, широта, долгота, высота метеостанции:
Владимир 56.1°ш. 40.3°д. 172 м над ур. моря [Российская Федерация]

Дополнительная информация

В oтличие oт бoльшинства пoгoдных сайтoв мы публикуем пoдрoбную метеoинфoрмацию в детальнoм прoфессиoнальнoм фoрмате.

Характеристики температуры и влажнoсти вoздуха измеряются на высoте 2 м в тени вдали oт зданий и деревьев.
Скoрoсть ветра измеряется на высoте 10 м (на урoвне рoста челoвека скoрoсть ветра ниже в 1.5-2 раза). Если метеoстанция нахoдится в гoрoде или в лесу, тo скoрoсть ветра занижена на 2-4 м/с пo сравнению с oткрытым местoм. Скoрoсть ветра над акватoриями крупных рек и oзёр, а также на вершинах хoлмoв на 2-5 м/с выше, чем в oбычных услoвиях.
Атмoсфернoе давление в разных тoчках местнoсти мoжет значительнo oтличаться oт давления на метеoстанции, в зависимoсти oт услoвий рельефа (при пoдъёме на 10 м давление пoнижается примернo на 1 мм рт.ст.).